Simultaneous Nadir Overpasses (SNOs) Predictions

Prediction of SNOs between METOP-B and NOAA-19 Satellite Orbit:

Table of predicted SNOs for the next 14.0 days since TLE Epoch: 4/5/2013
Index Date (METOP-B) Time (METOP-B) Lat,Lon (METOP-B) SZA (METOP-B ) Date (NOAA-19) Time (NOAA-19) Lat,Lon (NOAA-19) SZA (NOAA-19 ) Distance(km) Time Diff (sec)
1 04/14/2013 20:00:32 -73.64, 54.03 116.05 04/14/2013 19:59:21 -73.62, 52.41 115.99 50.59 71
2 04/14/2013 20:51:18 73.28,-139.45 63.61 04/14/2013 20:50:18 73.29,-139.56 63.63 3.56 60
3 04/14/2013 21:42:01 -73.27, 27.84 116.42 04/14/2013 21:41:18 -73.25, 27.77 116.42 3.05 43
4 04/14/2013 22:32:41 73.21,-164.95 63.52 04/14/2013 22:32:21 73.20,-164.89 63.52 1.90 20
5 04/14/2013 23:23:24 -73.19, 2.35 116.51 04/14/2013 23:23:22 -73.22, 2.33 116.48 2.50 2
6
